Voltar ao catálogo

STARLINK-31837

AtivoComunicaçõesVLEO
NORAD 61514·PAYLOAD·🇺🇸 United States

Lançado Oct 15, 2024 de Cape Canaveral Space Force Station

Loading…

Próximas Passagens (próximas 24 horas)

TLE

AtualizadoSource: CelesTrak SupGP

Época: Sep 14, 2026, 21:28 UTC

1 61514C 24183F   26257.89493056 -.00015319  00000+0 -45284-3 0  2574
2 61514  53.1586 341.5865 0001152  85.8501 110.4236 15.34381931    11

Acompanhe STARLINK-31837 em tempo real com AllMySat

Download on the App Store